Starlink 32250

operational
NORAD ID: 60425 Int'l Des: 2024-144 Owner: SPXS Country: US Constellation: starlink
LEOCIRCULAR

关于 Starlink 32250

正在加载描述...

实时位置

正在加载3D地球...

即将过境

高度历史

Altitude vs Time

uPlot chart will show altitude changes over time

两行轨道根数

1 60425U 24144A 25257.45875904 -.00001316 00000-0 -32360-4 0 9996
2 60425 53.1582 315.9797 0000562 39.6284 320.4758 15.30187276 61421
Epoch: Sep 14, 2025 • Age: 25 hours

当前状态

高度 481.5 km
速度 7.63 km/s
星下点 53.12°N, 134.36°W
发射日期 Aug 12, 2024
运行时间 1 years
类型 internet

技术详情

分类 Payload
质量 730.00 kg
干质量 700.00 kg
总质量 730.00 kg
长度 0.30 m
直径 4.10 m
跨度 29.00 m
形状 Box + pan
制造商 SPXS
平台类型 Starlink V2M
阶段状态 In Orbit
所有者/国家 SPXS/US

大型星座

Loading constellations...